,,,PA_Meas_PMT16A,,PR_Meas_QMR101_102,,RH_Meas_QMH101,,SR_Meas_QMS101,,TA_Meas_QMH101,,GenWind,,GenWind,
date,time,status,PA,status,PR,status,RH,status,SR,status,TA,status,DirAvg,status,SpdAvg,
2010-09-07, 00:00:04,VALID,1005.05,VALID,0,INVALID,116.028,VALID,0,VALID,23.6434,VALID,130,VALID,2.81484,
2010-09-07, 00:01:04,VALID,1004.98,VALID,0,INVALID,115.951,VALID,0,VALID,23.661,VALID,112,VALID,3.94336,
2010-09-07, 00:02:04,VALID,1004.99,VALID,0.5,INVALID,115.906,VALID,0,VALID,23.7425,VALID,109,VALID,2.64961,
2010-09-07, 00:03:04,VALID,1005.01,VALID,0,INVALID,115.906,VALID,0,VALID,23.7814,VALID,118,VALID,4.80078,
2010-09-07, 00:04:04,VALID,1004.9,VALID,0,INVALID,115.944,VALID,0,VALID,23.8185,VALID,107,VALID,3.87969,
2010-09-07, 00:05:04,VALID,1004.87,VALID,0,INVALID,116.066,VALID,0,VALID,23.8769,VALID,120,VALID,2.77813,
2010-09-07, 00:06:04,VALID,1004.8,VALID,0,INVALID,116.119,VALID,0,VALID,23.9353,VALID,129,VALID,3.92891,
2010-09-07, 00:07:04,VALID,1004.82,VALID,0,INVALID,116.165,VALID,0,VALID,24.0326,VALID,116,VALID,3.15625,
2010-09-07, 00:08:04,VALID,1004.73,VALID,0,INVALID,116.318,VALID,0,VALID,24.0734,VALID,107,VALID,2.84063,
2010-09-07, 00:09:04,VALID,1004.65,VALID,0,INVALID,116.501,VALID,0,VALID,24.1318,VALID,126,VALID,4.43867,
2010-09-07, 00:10:04,VALID,1004.66,VALID,0,INVALID,116.752,VALID,0,VALID,24.13,VALID,112,VALID,2.67188,
2010-09-07, 00:11:04,VALID,1004.62,VALID,0.5,INVALID,117.019,VALID,0.100563,VALID,24.1707,VALID,136,VALID,3.36602,
2010-09-07, 00:12:04,VALID,1004.6,VALID,0,INVALID,117.248,VALID,0,VALID,24.1689,VALID,105,VALID,3.27383,
2010-09-07, 00:13:04,VALID,1004.63,VALID,0,INVALID,117.508,VALID,0,VALID,24.2273,VALID,108,VALID,3.42148,
2010-09-07, 00:14:04,VALID,1004.54,VALID,0,INVALID,117.706,VALID,0,VALID,24.2857,VALID,107,VALID,3.16445,
2010-09-07, 00:15:04,VALID,1004.54,VALID,0,INVALID,118.011,VALID,0,VALID,24.307,VALID,115,VALID,1.93164,
2010-09-07, 00:16:04,VALID,1004.58,VALID,0,INVALID,118.286,VALID,0,VALID,24.2857,VALID,92,VALID,1.61016,
2010-09-07, 00:17:04,VALID,1004.51,VALID,0.5,INVALID,118.545,VALID,0,VALID,24.3265,VALID,112,VALID,1.625,
2010-09-07, 00:18:04,VALID,1004.54,VALID,0,INVALID,119.232,VALID,0,VALID,24.2486,VALID,85,VALID,3.42383,
2010-09-07, 00:19:04,VALID,1004.52,VALID,0,INVALID,119.583,VALID,0,VALID,24.2468,VALID,116,VALID,1.43711,
2010-09-07, 00:20:04,VALID,1004.53,VALID,0,INVALID,119.911,VALID,0,VALID,24.2273,VALID,114,VALID,1.8582,
2010-09-07, 00:21:04,VALID,1004.49,VALID,0,INVALID,120.094,VALID,0,VALID,24.2291,VALID,106,VALID,0.927344,
2010-09-07, 00:22:04,VALID,1004.49,VALID,0.5,INVALID,120.353,VALID,0,VALID,24.2078,VALID,118,VALID,2.11328,
2010-09-07, 00:23:04,VALID,1004.47,VALID,0,INVALID,120.498,VALID,0,VALID,24.1902,VALID,116,VALID,2.17422,
2010-09-07, 00:24:04,VALID,1004.44,VALID,0,INVALID,120.643,VALID,0.100563,VALID,24.1884,VALID,114,VALID,1.77656,
2010-09-07, 00:25:04,VALID,1004.47,VALID,0,INVALID,120.758,VALID,0,VALID,24.1884,VALID,92,VALID,1.81367,
2010-09-07, 00:26:04,VALID,1004.39,VALID,0,INVALID,120.834,VALID,0,VALID,24.1884,VALID,108,VALID,1.7207,
2010-09-07, 00:27:04,VALID,1004.34,VALID,0.5,INVALID,120.887,VALID,0,VALID,24.1476,VALID,99,VALID,0.503125,
2010-09-07, 00:28:04,VALID,1004.38,VALID,0,INVALID,120.933,VALID,0,VALID,24.1689,VALID,87,VALID,0.677344,
2010-09-07, 00:29:04,VALID,1004.38,VALID,0,INVALID,120.964,VALID,0,VALID,24.1494,VALID,93,VALID,0.776172,
2010-09-07, 00:30:04,VALID,1004.36,VALID,0,INVALID,120.971,VALID,0,VALID,24.1105,VALID,65,VALID,0.545313,
2010-09-07, 00:31:04,VALID,1004.35,VALID,0,INVALID,120.895,VALID,0,VALID,24.13,VALID,88,VALID,1.19922,
2010-09-07, 00:32:04,VALID,1004.3,VALID,0,INVALID,120.849,VALID,0,VALID,24.1105,VALID,111,VALID,0.982031,
2010-09-07, 00:33:04,VALID,1004.31,VALID,0,INVALID,120.841,VALID,0.100563,VALID,24.1318,VALID,118,VALID,1.12695,
2010-09-07, 00:34:04,VALID,1004.28,VALID,0.5,INVALID,120.849,VALID,0.100563,VALID,24.1087,VALID,131,VALID,1.36445,
2010-09-07, 00:35:04,VALID,1004.25,VALID,0,INVALID,120.834,VALID,0,VALID,24.13,VALID,99,VALID,1.3293,
2010-09-07, 00:36:04,VALID,1004.22,VALID,0,INVALID,120.925,VALID,0,VALID,24.1494,VALID,98,VALID,0.959375,
2010-09-07, 00:37:04,VALID,1004.23,VALID,0,INVALID,120.948,VALID,0,VALID,24.1707,VALID,107,VALID,0.551562,
2010-09-07, 00:38:04,VALID,1004.19,VALID,0,INVALID,121.055,VALID,0,VALID,24.13,VALID,115,VALID,0.722266,
2010-09-07, 00:39:04,VALID,1004.16,VALID,0,INVALID,121.101,VALID,0,VALID,24.13,VALID,87,VALID,1.48711,
2010-09-07, 00:40:04,VALID,1004.17,VALID,0,INVALID,121.154,VALID,0,VALID,24.13,VALID,114,VALID,0.853125,
2010-09-07, 00:41:04,VALID,1004.13,VALID,0,INVALID,121.238,VALID,0,VALID,24.1318,VALID,124,VALID,1.79844,
2010-09-07, 00:42:04,VALID,1004.13,VALID,0,INVALID,121.269,VALID,0,VALID,24.13,VALID,79,VALID,0.658984,
2010-09-07, 00:43:04,VALID,1004.15,VALID,0,INVALID,121.368,VALID,0,VALID,24.13,VALID,114,VALID,0.853516,
2010-09-07, 00:44:04,VALID,1004.13,VALID,0,INVALID,121.49,VALID,0,VALID,24.1494,VALID,101,VALID,1.35195,
2010-09-07, 00:45:04,VALID,1004.1,VALID,0,INVALID,121.482,VALID,0,VALID,24.13,VALID,74,VALID,0.275,
2010-09-07, 00:46:04,VALID,1004.12,VALID,0,INVALID,121.589,VALID,0,VALID,24.1281,VALID,66,VALID,1.31719,
2010-09-07, 00:47:04,VALID,1004.1,VALID,0.5,INVALID,121.627,VALID,0,VALID,24.1513,VALID,96,VALID,0.789844,
2010-09-07, 00:48:04,VALID,1004.12,VALID,0,INVALID,121.642,VALID,0,VALID,24.1513,VALID,82,VALID,0.282031,
2010-09-07, 00:49:04,VALID,1004.11,VALID,0,INVALID,121.658,VALID,0,VALID,24.1318,VALID,93,VALID,0.785547,
2010-09-07, 00:50:04,VALID,1004.11,VALID,0,INVALID,121.688,VALID,0,VALID,24.1105,VALID,114,VALID,1.09531,
2010-09-07, 00:51:04,VALID,1004.1,VALID,0,INVALID,121.673,VALID,0,VALID,24.1513,VALID,83,VALID,0.857422,
2010-09-07, 00:52:04,VALID,1004.07,VALID,0,INVALID,121.696,VALID,0,VALID,24.1494,VALID,79,VALID,1.37734,
2010-09-07, 00:53:04,VALID,1004.11,VALID,0,INVALID,121.749,VALID,0,VALID,24.1494,VALID,106,VALID,1.10273,
2010-09-07, 00:54:04,VALID,1004.08,VALID,0,INVALID,121.787,VALID,0,VALID,24.1494,VALID,108,VALID,0.653125,
2010-09-07, 00:55:04,VALID,1004.05,VALID,0,INVALID,121.787,VALID,0,VALID,24.1476,VALID,86,VALID,0.478516,
2010-09-07, 00:56:04,VALID,1004.06,VALID,0,INVALID,121.81,VALID,0,VALID,24.1494,VALID,76,VALID,0.490234,
2010-09-07, 00:57:04,VALID,1004.03,VALID,0,INVALID,121.826,VALID,0,VALID,24.13,VALID,63,VALID,0.513281,
2010-09-07, 00:58:04,VALID,1004.04,VALID,0,INVALID,121.772,VALID,0,VALID,24.1494,VALID,95,VALID,1.12227,
2010-09-07, 00:59:04,VALID,1003.99,VALID,0,INVALID,121.795,VALID,0,VALID,24.1707,VALID,78,VALID,0.885156,
2010-09-07, 01:00:04,VALID,1003.98,VALID,0,INVALID,121.719,VALID,0,VALID,24.1494,VALID,110,VALID,0.771094,
2010-09-07, 01:01:04,VALID,1003.92,VALID,0,INVALID,121.704,VALID,0,VALID,24.1689,VALID,52,VALID,0.9625,
2010-09-07, 01:02:04,VALID,1003.92,VALID,0.5,INVALID,121.665,VALID,0,VALID,24.1494,VALID,37,VALID,0.523828,
2010-09-07, 01:03:04,VALID,1003.85,VALID,0,INVALID,121.642,VALID,0,VALID,24.1707,VALID,64,VALID,0.432813,
2010-09-07, 01:04:04,VALID,1003.88,VALID,0,INVALID,121.635,VALID,0,VALID,24.1902,VALID,32,VALID,0.590625,
2010-09-07, 01:05:04,VALID,1003.82,VALID,0,INVALID,121.597,VALID,0,VALID,24.1902,VALID,73,VALID,0.757422,
2010-09-07, 01:06:04,VALID,1003.79,VALID,0,INVALID,121.589,VALID,0,VALID,24.1689,VALID,12,VALID,1.08867,
2010-09-07, 01:07:04,VALID,1003.8,VALID,0,INVALID,121.612,VALID,0,VALID,24.1689,VALID,33,VALID,0.714453,
2010-09-07, 01:08:04,VALID,1003.76,VALID,0,INVALID,121.589,VALID,0,VALID,24.1494,VALID,33,VALID,0.367969,
2010-09-07, 01:09:04,VALID,1003.72,VALID,0,INVALID,121.536,VALID,0,VALID,24.1902,VALID,6,VALID,0.611328,
2010-09-07, 01:10:04,VALID,1003.71,VALID,0,INVALID,121.498,VALID,0,VALID,24.1494,VALID,360,VALID,0.615234,
2010-09-07, 01:11:04,VALID,1003.71,VALID,0,INVALID,121.459,VALID,0.100563,VALID,24.1707,VALID,43,VALID,0.535156,
2010-09-07, 01:12:04,VALID,1003.63,VALID,0,INVALID,121.375,VALID,0,VALID,24.1494,VALID,1,VALID,1.69102,
2010-09-07, 01:13:04,VALID,1003.66,VALID,0,INVALID,121.33,VALID,0,VALID,24.1494,VALID,353,VALID,1.0668,
2010-09-07, 01:14:04,VALID,1003.64,VALID,0,INVALID,121.322,VALID,0,VALID,24.1494,VALID,23,VALID,0.655078,
2010-09-07, 01:15:04,VALID,1003.64,VALID,0,INVALID,121.253,VALID,0,VALID,24.1689,VALID,9,VALID,0.651563,
2010-09-07, 01:16:04,VALID,1003.61,VALID,0,INVALID,121.292,VALID,0,VALID,24.13,VALID,16,VALID,0.342578,
2010-09-07, 01:17:04,VALID,1003.59,VALID,0,INVALID,121.276,VALID,0,VALID,24.1105,VALID,6,VALID,0.508594,
2010-09-07, 01:18:04,VALID,1003.56,VALID,0,INVALID,121.307,VALID,0,VALID,24.091,VALID,3,VALID,0.958984,
2010-09-07, 01:19:04,VALID,1003.54,VALID,0,INVALID,121.292,VALID,0,VALID,24.0716,VALID,12,VALID,0.220703,
2010-09-07, 01:20:04,VALID,1003.57,VALID,0,INVALID,121.2,VALID,0,VALID,24.0521,VALID,12,VALID,0.418359,
2010-09-07, 01:21:04,VALID,1003.58,VALID,0,INVALID,121.147,VALID,0.100563,VALID,24.0521,VALID,12,VALID,0.154687,
2010-09-07, 01:22:04,VALID,1003.51,VALID,0,INVALID,121.009,VALID,0,VALID,24.0521,VALID,11,VALID,0.367969,
2010-09-07, 01:23:04,VALID,1003.47,VALID,0,INVALID,120.841,VALID,0,VALID,24.0326,VALID,11,VALID,0.325391,
2010-09-07, 01:24:04,VALID,1003.53,VALID,0,INVALID,120.712,VALID,0,VALID,24.0716,VALID,28,VALID,0.289844,
2010-09-07, 01:25:04,VALID,1003.52,VALID,0,INVALID,120.613,VALID,0,VALID,24.0929,VALID,28,VALID,0,
2010-09-07, 01:26:04,VALID,1003.53,VALID,0.5,INVALID,120.513,VALID,0,VALID,24.0716,VALID,28,VALID,0,
2010-09-07, 01:27:04,VALID,1003.5,VALID,0,INVALID,120.445,VALID,0,VALID,24.1123,VALID,28,VALID,0,
2010-09-07, 01:28:04,VALID,1003.45,VALID,0,INVALID,120.338,VALID,0,VALID,24.0716,VALID,28,VALID,0,
2010-09-07, 01:29:04,VALID,1003.48,VALID,0,INVALID,120.239,VALID,0,VALID,24.1105,VALID,28,VALID,0,
2010-09-07, 01:30:04,VALID,1003.52,VALID,0,INVALID,120.109,VALID,0,VALID,24.1105,VALID,28,VALID,0.378516,
2010-09-07, 01:31:04,VALID,1003.52,VALID,0,INVALID,120.04,VALID,0,VALID,24.1105,VALID,28,VALID,0.0367187,
2010-09-07, 01:32:04,VALID,1003.46,VALID,0,INVALID,119.895,VALID,0,VALID,24.1105,VALID,50,VALID,0.540625,
2010-09-07, 01:33:04,VALID,1003.41,VALID,0,INVALID,119.941,VALID,0,VALID,24.1105,VALID,16,VALID,0.419531,
2010-09-07, 01:34:04,VALID,1003.38,VALID,0,INVALID,119.903,VALID,0,VALID,24.1318,VALID,13,VALID,0.504297,
2010-09-07, 01:35:04,VALID,1003.38,VALID,0,INVALID,119.85,VALID,0,VALID,24.091,VALID,13,VALID,0.284375,
2010-09-07, 01:36:04,VALID,1003.44,VALID,0,INVALID,119.834,VALID,0,VALID,24.0716,VALID,13,VALID,0.478516,
2010-09-07, 01:37:04,VALID,1003.43,VALID,0,INVALID,119.758,VALID,0,VALID,24.0716,VALID,13,VALID,0.31875,
2010-09-07, 01:38:04,VALID,1003.44,VALID,0,INVALID,119.804,VALID,0,VALID,24.0734,VALID,13,VALID,0.276563,
2010-09-07, 01:39:04,VALID,1003.41,VALID,0,INVALID,119.682,VALID,0,VALID,24.0521,VALID,76,VALID,0.534766,
2010-09-07, 01:40:04,VALID,1003.38,VALID,0,INVALID,119.552,VALID,0,VALID,24.0929,VALID,24,VALID,0.607813,
2010-09-07, 01:41:04,VALID,1003.39,VALID,0,INVALID,119.537,VALID,0,VALID,24.0521,VALID,24,VALID,0.579297,
2010-09-07, 01:42:04,VALID,1003.31,VALID,0,INVALID,119.491,VALID,0,VALID,24.0521,VALID,24,VALID,0.175781,
2010-09-07, 01:43:04,VALID,1003.24,VALID,0,INVALID,119.361,VALID,0,VALID,24.0716,VALID,20,VALID,0.454297,
2010-09-07, 01:44:04,VALID,1003.23,VALID,0.5,INVALID,119.239,VALID,0,VALID,24.0929,VALID,18,VALID,0.275,
2010-09-07, 01:45:04,VALID,1003.21,VALID,0,INVALID,119.148,VALID,0,VALID,24.091,VALID,18,VALID,0.0921875,
2010-09-07, 01:46:04,VALID,1003.15,VALID,0,INVALID,119.072,VALID,0,VALID,24.1318,VALID,18,VALID,0.598047,
2010-09-07, 01:47:04,VALID,1003.15,VALID,0,INVALID,118.942,VALID,0,VALID,24.1494,VALID,18,VALID,0.55625,
2010-09-07, 01:48:04,VALID,1003.16,VALID,0,INVALID,118.873,VALID,0,VALID,24.1494,VALID,18,VALID,0.365625,
2010-09-07, 01:49:04,VALID,1003.15,VALID,0.5,INVALID,118.835,VALID,0,VALID,24.1707,VALID,18,VALID,0,
2010-09-07, 01:50:04,VALID,1003.09,VALID,0.5,INVALID,118.85,VALID,0,VALID,24.1494,VALID,88,VALID,0.878125,
2010-09-07, 01:51:04,VALID,1003.02,VALID,0,INVALID,118.797,VALID,0,VALID,24.2115,VALID,95,VALID,0.19375,
2010-09-07, 01:52:04,VALID,1002.88,VALID,0,INVALID,118.766,VALID,0,VALID,24.1513,VALID,95,VALID,0.262891,
2010-09-07, 01:53:04,VALID,1002.91,VALID,0,INVALID,118.728,VALID,0,VALID,24.13,VALID,92,VALID,0.457422,
2010-09-07, 01:54:04,VALID,1002.84,VALID,0.5,INVALID,118.66,VALID,0,VALID,24.1513,VALID,353,VALID,1.40195,
2010-09-07, 01:55:04,VALID,1002.82,VALID,0,INVALID,118.85,VALID,0,VALID,24.091,VALID,187,VALID,1.59297,
2010-09-07, 01:56:04,VALID,1002.86,VALID,0,INVALID,118.736,VALID,0,VALID,24.1494,VALID,76,VALID,1.43047,
2010-09-07, 01:57:04,VALID,1002.88,VALID,0,INVALID,118.805,VALID,0,VALID,24.1689,VALID,105,VALID,0.776953,
2010-09-07, 01:58:04,VALID,1002.84,VALID,0,INVALID,118.927,VALID,0,VALID,24.1902,VALID,18,VALID,1.06797,
2010-09-07, 01:59:04,VALID,1002.83,VALID,0,INVALID,119.018,VALID,0,VALID,24.2078,VALID,58,VALID,0.686719,
2010-09-07, 02:00:04,VALID,1002.86,VALID,0,INVALID,119.163,VALID,0,VALID,24.2078,VALID,99,VALID,1.37344,
2010-09-07, 02:01:04,VALID,1002.83,VALID,0,INVALID,119.217,VALID,0,VALID,24.2468,VALID,121,VALID,1.11289,
2010-09-07, 02:02:04,VALID,1002.81,VALID,0,INVALID,119.346,VALID,0,VALID,24.3052,VALID,137,VALID,0.789453,
2010-09-07, 02:03:04,VALID,1002.85,VALID,0,INVALID,119.506,VALID,0,VALID,24.3033,VALID,115,VALID,1.23906,
2010-09-07, 02:04:04,VALID,1002.87,VALID,0,INVALID,119.705,VALID,0,VALID,24.3636,VALID,101,VALID,1.13633,
2010-09-07, 02:05:04,VALID,1002.92,VALID,0,INVALID,119.934,VALID,0,VALID,24.4043,VALID,117,VALID,1.47031,
2010-09-07, 02:06:04,VALID,1002.95,VALID,0,INVALID,120.224,VALID,0,VALID,24.4025,VALID,114,VALID,0.920703,
2010-09-07, 02:07:04,VALID,1002.98,VALID,0,INVALID,120.498,VALID,0,VALID,24.4238,VALID,108,VALID,0.874609,
2010-09-07, 02:08:04,VALID,1002.97,VALID,0,INVALID,120.75,VALID,0,VALID,24.4238,VALID,101,VALID,0.588672,
2010-09-07, 02:09:04,VALID,1002.98,VALID,0,INVALID,120.964,VALID,0,VALID,24.383,VALID,98,VALID,0.526563,
2010-09-07, 02:10:04,VALID,1002.99,VALID,0,INVALID,121.086,VALID,0,VALID,24.383,VALID,95,VALID,0.551172,
2010-09-07, 02:11:04,VALID,1002.99,VALID,0,INVALID,121.147,VALID,0,VALID,24.3636,VALID,358,VALID,1.17422,
2010-09-07, 02:12:04,VALID,1002.92,VALID,0,INVALID,121.322,VALID,0,VALID,24.3441,VALID,1,VALID,0.832812,
2010-09-07, 02:13:04,VALID,1002.9,VALID,0,INVALID,121.375,VALID,0,VALID,24.3265,VALID,354,VALID,1.3457,
2010-09-07, 02:14:04,VALID,1002.87,VALID,0,INVALID,121.391,VALID,0,VALID,24.307,VALID,318,VALID,0.475781,
2010-09-07, 02:15:04,VALID,1002.88,VALID,0,INVALID,121.238,VALID,0,VALID,24.3052,VALID,353,VALID,0.840234,
2010-09-07, 02:16:04,VALID,1002.82,VALID,0,INVALID,121.353,VALID,0,VALID,24.2875,VALID,359,VALID,1.08164,
2010-09-07, 02:17:04,VALID,1002.81,VALID,0,INVALID,121.284,VALID,0,VALID,24.2681,VALID,348,VALID,1.10312,
2010-09-07, 02:18:04,VALID,1002.8,VALID,0,INVALID,121.101,VALID,0,VALID,24.2273,VALID,343,VALID,1.20078,
2010-09-07, 02:19:04,VALID,1002.82,VALID,0,INVALID,120.986,VALID,0,VALID,24.2681,VALID,352,VALID,0.951172,
2010-09-07, 02:20:04,VALID,1002.81,VALID,0,INVALID,121.025,VALID,0,VALID,24.2273,VALID,4,VALID,1.41094,
2010-09-07, 02:21:04,VALID,1002.82,VALID,0,INVALID,120.979,VALID,0,VALID,24.2097,VALID,19,VALID,1.01875,
2010-09-07, 02:22:04,VALID,1002.85,VALID,0,INVALID,120.819,VALID,0,VALID,24.2273,VALID,347,VALID,1.24531,
2010-09-07, 02:23:04,VALID,1002.91,VALID,0,INVALID,120.849,VALID,0,VALID,24.2273,VALID,13,VALID,1.13672,
2010-09-07, 02:24:04,VALID,1002.98,VALID,0,INVALID,120.841,VALID,0,VALID,24.2486,VALID,356,VALID,1.33984,
2010-09-07, 02:25:04,VALID,1003.13,VALID,0,INVALID,120.811,VALID,0,VALID,24.2468,VALID,25,VALID,1.27695,
2010-09-07, 02:26:04,VALID,1003.16,VALID,0,INVALID,120.773,VALID,0,VALID,24.2681,VALID,38,VALID,0.983594,
2010-09-07, 02:27:04,VALID,1003.15,VALID,0,INVALID,120.674,VALID,0,VALID,24.2875,VALID,360,VALID,1.32969,
2010-09-07, 02:28:04,VALID,1002.93,VALID,0.5,INVALID,120.773,VALID,0,VALID,24.2468,VALID,356,VALID,1.43398,
2010-09-07, 02:29:04,VALID,1002.87,VALID,0,INVALID,120.742,VALID,0,VALID,24.2468,VALID,7,VALID,1.97344,
2010-09-07, 02:30:04,VALID,1002.83,VALID,0,INVALID,121.078,VALID,0,VALID,24.2291,VALID,6,VALID,3.17617,
2010-09-07, 02:31:04,VALID,1002.9,VALID,0,INVALID,121.414,VALID,0,VALID,24.1902,VALID,93,VALID,2.18867,
2010-09-07, 02:32:04,VALID,1002.84,VALID,0,INVALID,121.917,VALID,0,VALID,24.1884,VALID,54,VALID,1.3832,
2010-09-07, 02:33:04,VALID,1002.83,VALID,0,INVALID,122.367,VALID,0,VALID,24.2291,VALID,21,VALID,1.92813,
2010-09-07, 02:34:04,VALID,1002.88,VALID,0,INVALID,122.657,VALID,0,VALID,24.2468,VALID,90,VALID,1.81914,
2010-09-07, 02:35:04,VALID,1002.88,VALID,0.5,INVALID,122.947,VALID,0,VALID,24.2273,VALID,77,VALID,2.70078,
2010-09-07, 02:36:04,VALID,1002.83,VALID,0,INVALID,123.054,VALID,0,VALID,24.2468,VALID,102,VALID,2.30195,
2010-09-07, 02:37:04,VALID,1002.86,VALID,0,INVALID,123.054,VALID,0,VALID,24.2875,VALID,100,VALID,3.30938,
2010-09-07, 02:38:04,VALID,1002.82,VALID,0,INVALID,122.909,VALID,0,VALID,24.307,VALID,97,VALID,3.45117,
2010-09-07, 02:39:04,VALID,1002.84,VALID,0.5,INVALID,122.878,VALID,0,VALID,24.2875,VALID,71,VALID,3.93047,
2010-09-07, 02:40:04,VALID,1002.87,VALID,0,INVALID,122.909,VALID,0,VALID,24.2699,VALID,92,VALID,2.0418,
2010-09-07, 02:41:04,VALID,1002.73,VALID,0.5,INVALID,123.061,VALID,0,VALID,24.1689,VALID,74,VALID,1.75898,
2010-09-07, 02:42:04,VALID,1002.68,VALID,0.5,INVALID,123.176,VALID,0,VALID,24.0929,VALID,96,VALID,0.850781,
2010-09-07, 02:43:04,VALID,1002.74,VALID,0,INVALID,123.184,VALID,0,VALID,24.0521,VALID,100,VALID,2.03672,
2010-09-07, 02:44:04,VALID,1002.75,VALID,0.5,INVALID,123.084,VALID,0,VALID,24.0132,VALID,97,VALID,1.89023,
2010-09-07, 02:45:04,VALID,1002.73,VALID,0,INVALID,122.97,VALID,0,VALID,24.0132,VALID,73,VALID,2.94414,
2010-09-07, 02:46:04,VALID,1002.79,VALID,0,INVALID,122.863,VALID,0.100563,VALID,24.0132,VALID,77,VALID,2.84297,
2010-09-07, 02:47:04,VALID,1002.71,VALID,0,INVALID,122.787,VALID,0,VALID,24.0132,VALID,97,VALID,1.8418,
2010-09-07, 02:48:04,VALID,1002.71,VALID,0,INVALID,122.733,VALID,0,VALID,24.0132,VALID,113,VALID,1.34531,
2010-09-07, 02:49:04,VALID,1002.66,VALID,0,INVALID,122.627,VALID,0,VALID,24.0521,VALID,105,VALID,2.31484,
2010-09-07, 02:50:04,VALID,1002.63,VALID,0,INVALID,122.657,VALID,0,VALID,24.0716,VALID,93,VALID,2.52305,
2010-09-07, 02:51:04,VALID,1002.61,VALID,0,INVALID,122.695,VALID,0.100563,VALID,24.091,VALID,105,VALID,2.31641,
2010-09-07, 02:52:04,VALID,1002.66,VALID,0,INVALID,122.772,VALID,0,VALID,24.091,VALID,107,VALID,2.62188,
2010-09-07, 02:53:04,VALID,1002.72,VALID,0,INVALID,122.833,VALID,0,VALID,24.13,VALID,96,VALID,2.00547,
2010-09-07, 02:54:04,VALID,1002.7,VALID,0,INVALID,122.947,VALID,0,VALID,24.1318,VALID,82,VALID,1.25898,
2010-09-07, 02:55:04,VALID,1002.7,VALID,0,INVALID,123.008,VALID,0,VALID,24.1105,VALID,103,VALID,1.52031,
2010-09-07, 02:56:04,VALID,1002.78,VALID,0,INVALID,123.023,VALID,0,VALID,24.1105,VALID,85,VALID,0.553906,
2010-09-07, 02:57:04,VALID,1002.79,VALID,0,INVALID,123.069,VALID,0,VALID,24.0716,VALID,86,VALID,0.973047,
2010-09-07, 02:58:04,VALID,1002.79,VALID,0,INVALID,123.046,VALID,0,VALID,24.091,VALID,75,VALID,1.13477,
2010-09-07, 02:59:04,VALID,1002.82,VALID,0,INVALID,123.039,VALID,0,VALID,24.091,VALID,79,VALID,1.24609,
2010-09-07, 03:00:04,VALID,1002.77,VALID,0,INVALID,123.008,VALID,0,VALID,24.091,VALID,100,VALID,0.711719,
2010-09-07, 03:01:04,VALID,1002.78,VALID,0,INVALID,123.008,VALID,0,VALID,24.1105,VALID,71,VALID,0.266406,
2010-09-07, 03:02:04,VALID,1002.79,VALID,0,INVALID,122.985,VALID,0,VALID,24.091,VALID,68,VALID,0.9125,
2010-09-07, 03:03:04,VALID,1002.8,VALID,0,INVALID,122.985,VALID,0,VALID,24.091,VALID,60,VALID,1.76836,
2010-09-07, 03:04:04,VALID,1002.8,VALID,0,INVALID,122.97,VALID,0,VALID,24.1123,VALID,96,VALID,1.2168,
2010-09-07, 03:05:04,VALID,1002.8,VALID,0,INVALID,122.978,VALID,0,VALID,24.1105,VALID,97,VALID,1.48164,
2010-09-07, 03:06:04,VALID,1002.8,VALID,0,INVALID,122.978,VALID,0,VALID,24.13,VALID,93,VALID,1.42227,
2010-09-07, 03:07:04,VALID,1002.77,VALID,0,INVALID,122.993,VALID,0,VALID,24.1494,VALID,102,VALID,0.819531,
2010-09-07, 03:08:04,VALID,1002.85,VALID,0,INVALID,123.016,VALID,0,VALID,24.1494,VALID,89,VALID,1.68945,
2010-09-07, 03:09:04,VALID,1002.84,VALID,0,INVALID,123.031,VALID,0,VALID,24.1689,VALID,79,VALID,1.51289,
2010-09-07, 03:10:04,VALID,1002.84,VALID,0,INVALID,123.008,VALID,0,VALID,24.1689,VALID,77,VALID,1.12539,
2010-09-07, 03:11:04,VALID,1002.87,VALID,0,INVALID,123.008,VALID,0,VALID,24.1884,VALID,111,VALID,1.25273,
2010-09-07, 03:12:04,VALID,1002.86,VALID,0,INVALID,122.985,VALID,0,VALID,24.2078,VALID,121,VALID,0.886328,
2010-09-07, 03:13:04,VALID,1002.86,VALID,0,INVALID,122.978,VALID,0,VALID,24.2273,VALID,131,VALID,0.939062,
2010-09-07, 03:14:04,VALID,1002.85,VALID,0.5,INVALID,122.939,VALID,0,VALID,24.2662,VALID,107,VALID,0.848437,
2010-09-07, 03:15:04,VALID,1002.9,VALID,0,INVALID,122.894,VALID,0,VALID,24.2857,VALID,100,VALID,1.08828,
2010-09-07, 03:16:04,VALID,1002.92,VALID,0,INVALID,122.863,VALID,0,VALID,24.3033,VALID,93,VALID,1.80938,
2010-09-07, 03:17:04,VALID,1002.87,VALID,0,INVALID,122.825,VALID,0,VALID,24.3636,VALID,112,VALID,0.535156,
2010-09-07, 03:18:04,VALID,1002.87,VALID,0,INVALID,122.878,VALID,0,VALID,24.3636,VALID,89,VALID,0.767578,
2010-09-07, 03:19:04,VALID,1002.85,VALID,0,INVALID,122.886,VALID,0,VALID,24.3441,VALID,120,VALID,0.291797,
2010-09-07, 03:20:04,VALID,1002.84,VALID,0,INVALID,122.848,VALID,0,VALID,24.3849,VALID,109,VALID,0.974609,
2010-09-07, 03:21:04,VALID,1002.81,VALID,0,INVALID,122.756,VALID,0,VALID,24.383,VALID,91,VALID,0.953125,
2010-09-07, 03:22:04,VALID,1002.85,VALID,0,INVALID,122.634,VALID,0,VALID,24.422,VALID,125,VALID,1.03672,
2010-09-07, 03:23:04,VALID,1002.89,VALID,0,INVALID,122.474,VALID,0,VALID,24.4804,VALID,102,VALID,1.30703,
2010-09-07, 03:24:04,VALID,1002.88,VALID,0,INVALID,122.451,VALID,0,VALID,24.4998,VALID,95,VALID,1.28945,
2010-09-07, 03:25:04,VALID,1002.87,VALID,0,INVALID,122.482,VALID,0,VALID,24.5388,VALID,113,VALID,0.617969,
2010-09-07, 03:26:04,VALID,1002.92,VALID,0,INVALID,122.451,VALID,0,VALID,24.5582,VALID,100,VALID,2.13789,
2010-09-07, 03:27:04,VALID,1002.94,VALID,0,INVALID,122.405,VALID,0,VALID,24.5953,VALID,132,VALID,0.965234,
2010-09-07, 03:28:04,VALID,1002.92,VALID,0,INVALID,122.428,VALID,0,VALID,24.6361,VALID,84,VALID,1.45313,
2010-09-07, 03:29:04,VALID,1002.89,VALID,0,INVALID,122.451,VALID,0,VALID,24.6556,VALID,107,VALID,1.49492,
2010-09-07, 03:30:04,VALID,1002.9,VALID,0,INVALID,122.497,VALID,0,VALID,24.6537,VALID,108,VALID,0.926172,
2010-09-07, 03:31:04,VALID,1002.9,VALID,0,INVALID,122.55,VALID,0,VALID,24.6945,VALID,107,VALID,1.56484,
2010-09-07, 03:32:04,VALID,1002.94,VALID,0,INVALID,122.604,VALID,0,VALID,24.675,VALID,101,VALID,0.580078,
2010-09-07, 03:33:04,VALID,1002.91,VALID,0,INVALID,122.657,VALID,0,VALID,24.675,VALID,91,VALID,0.413281,
2010-09-07, 03:34:04,VALID,1002.86,VALID,0,INVALID,122.688,VALID,0,VALID,24.6556,VALID,56,VALID,0.283594,
2010-09-07, 03:35:04,VALID,1002.85,VALID,0,INVALID,122.711,VALID,0,VALID,24.6537,VALID,67,VALID,0.282813,
2010-09-07, 03:36:04,VALID,1002.86,VALID,0,INVALID,122.657,VALID,0,VALID,24.6556,VALID,125,VALID,0.678125,
2010-09-07, 03:37:04,VALID,1002.86,VALID,0,INVALID,122.596,VALID,0,VALID,24.675,VALID,100,VALID,0.847656,
2010-09-07, 03:38:04,VALID,1002.9,VALID,0,INVALID,122.543,VALID,0,VALID,24.675,VALID,68,VALID,0.416016,
2010-09-07, 03:39:04,VALID,1002.9,VALID,0,INVALID,122.459,VALID,0,VALID,24.6732,VALID,102,VALID,0.835156,
2010-09-07, 03:40:04,VALID,1002.88,VALID,0,INVALID,122.367,VALID,0,VALID,24.6945,VALID,62,VALID,0.605859,
2010-09-07, 03:41:04,VALID,1002.89,VALID,0,INVALID,122.352,VALID,0,VALID,24.714,VALID,71,VALID,0.496094,
2010-09-07, 03:42:04,VALID,1002.85,VALID,0,INVALID,122.329,VALID,0,VALID,24.6945,VALID,27,VALID,0.719922,